Back to catalog

CZ-6A DEB

AlivePO
NORAD 60878·DEBRIS·🇨🇳 China

Launched Aug 6, 2024 from Taiyuan Satellite Launch Center

Loading…

Next Passes (next 24 hours)

TLE

FreshSource: Space-Track

Epoch: Sep 14, 2026, 10:32 UTC

1 60878U 24140KH  26257.43903018  .00036664  00000-0  15627-2 0  9998
2 60878  89.0548 260.7969 0068847 132.9707 227.7340 15.20612919113125

Track CZ-6A DEB in real time with AllMySat

Download on the App Store